DECAYED

STARLINK-1648, 46533 (Decayed)

Orbit data source: Space-Track

STARLINK-1648, 46533 was a payload satellite owned by SpaceX/Seattle (US) in LEO that was launched on Tue, 06 Oct 2020 UTC via an FALCON 9 launch vehicle from the Air Force Eastern Test Range (AFETR). Payload-class satellites include a variety of spacecraft equipped with specific instruments for various scientific and technological missions. These include communications satellites like Starlink; space stations such as the ISS; scientific satellites like the Hubble; Earth observation satellites from companies like Planet Labs, Umbra, and HawkEye 360; GPS; miniature CubeSats for education and research; and military/defense satellites.

Not visible in the next 10 days
Identifier
46533, 2020-070B
Orbit
Decayed
Country
Flag of USUS
Related business
Manufacturer
SpaceX/Seattle
Mission
Decayed Commercial Communications
Bus & Motor
STARLINK, Unknown motor
Mass
260 kg wet, ~248 kg dry
Launch date (UTC)
2020-10-06 (6 years ago)
Launch vehicle
FALCON 9
Launch site
Air Force Eastern Test Range (AFETR)
Object type
Payload
Rocket body
Debris
Shape & HBR
Box + 1 Pan, 10.1 m
Radar Cross Section
13.562 m², Large (>1 m²)

Expand to show TLE details & history
Last TLE update: 1 month ago

TLE from 1 month ago
0 STARLINK-1648
1 46533U 20070B   26089.30838089  .10839954  12328-4  68759-3 0  9991
2 46533  53.0282  18.7772 0005930 230.3137 129.7387 16.41067097303522
Epoch: 2026-03-30T07:24Z
TLE epoch observation values (Epoch: 2026-03-30T07:24:04.108Z)
Latitude
-0.00007°
Longitude
80.05825°
Altitude
166.374 km
Speed
7.806 km/s
True Right ascension
01h 15m 06s
True Declination
0° 00' 00"
Sunlit
Object was in daylight at epoch
Visualization orbit readout
Latitude
Unknown
Longitude
Unknown
Altitude
Unknown
Speed
Unknown
Apparent Right ascension
Unknown
Apparent Declination
Unknown
Sunlit
N/A
Visualization observer readout
Local Sidereal Time
18:46:32
Azimuth
Unknown
Elevation
Unknown
Doppler factor
Unknown
Orbital elements
Apogee altitude
167.135 km
Perigee altitude
159.377 km
Semi-major axis
6,541.393 km
Eccentricity
0.00059
Inclination
53.0282°
RAAN
18.7772°
Arg. of periapsis
230.3137°
True anomaly
129.79093°
Mean anomaly
129.7387°
Eccentric anomaly
129.76482°
Mean motion
4.1024 °/min
Orbital period
87.75 mins
BSTAR
0.00068759
Loading maneuver chart data...
Computing Atmospheric mass density...

Documentation

Showing up to 5 results
|